Wind_Speed
14 11 11 8 6 3 4 1 1 1 2 2 2 8 10 12 13 13 18 21 22 25 26 25 24 25 24 25 26 26 24 22 22 22 26 32 35 32
14 14 13 12 10 7 4 2 2 2 1 3 10 13 12 13 16 17 18 21 19 19 23 25 28 26 22 21 20 22 19 17 19 19 18 19 20 30
15 14 16 14 14 10 6 6 6 4 4 7 10 14 15 16 19 20 21 20 16 24 31 26 23 20 21 21 19 18 17 17 17 16 17 18 17 14
16 16 16 13 15 13 12 10 8 9 8 12 16 15 19 21 23 24 21 16 23 31 25 24 17 22 20 18 18 17 17 19 17 20 21 19 16 13
19 18 19 17 17 17 14 14 14 12 12 13 16 21 24 23 23 21 20 25 28 24 26 16 22 22 17 17 16 16 17 17 20 22 20 21 19 17
24 23 22 22 22 21 19 19 18 17 17 18 20 23 23 22 22 22 28 29 28 28 23 21 23 17 15 15 15 15 15 20 22 26 26 25 22 21
29 28 27 25 25 23 23 21 21 22 21 21 24 25 26 25 23 24 26 26 30 20 19 29 24 17 14 12 11 11 20 22 27 27 28 31 28 23
33 31 29 28 27 28 26 24 25 25 26 25 25 24 27 28 28 27 27 22 12 16 23 30 20 17 13 11 5 13 21 24 28 29 31 32 28 24
38 35 33 32 30 29 29 29 30 28 28 29 30 30 30 31 29 30 30 24 24 27 22 22 18 15 9 4 4 12 21 25 27 30 31 31 26 20
41 39 37 36 35 32 29 29 30 29 30 30 31 33 32 30 28 27 26 24 27 30 18 8 17 15 8 5 6 12 19 25 26 29 31 31 24 19
44 43 41 39 38 36 32 32 31 31 29 29 28 28 29 29 27 26 26 23 14 25 22 12 10 8 8 9 9 12 17 22 25 27 30 27 24 19
40 41 44 44 41 37 35 33 33 36 32 31 30 30 30 30 27 26 27 24 18 11 10 5 6 5 4 9 11 12 14 18 23 26 28 23 22 21
35 34 35 42 42 40 38 38 38 36 35 35 34 33 32 31 30 28 25 23 22 24 27 16 8 8 7 5 8 10 14 16 21 24 28 24 18 19
35 33 33 35 38 38 37 39 39 38 38 38 34 35 34 37 35 28 25 24 23 26 25 19 10 10 8 5 7 8 11 12 19 21 25 23 19 16
40 35 32 32 33 34 36 36 33 34 35 35 34 35 36 34 31 31 27 22 20 21 18 18 17 15 13 8 5 7 10 10 15 17 19 20 19 17
48 43 40 39 37 37 37 35 34 33 35 36 36 37 32 31 30 28 25 21 20 19 16 16 15 14 14 11 9 7 6 6 11 12 13 15 15 12
43 39 33 34 32 35 38 38 37 33 34 35 36 35 33 28 28 26 22 21 22 18 16 15 13 13 14 11 9 8 6 6 7 9 8 9 12 10
30 31 30 29 30 30 29 28 33 38 39 37 36 33 29 25 27 25 23 26 24 21 18 18 15 11 9 10 11 9 8 8 6 6 7 3 7 8
31 26 28 29 29 28 28 28 28 34 34 37 36 33 31 33 31 26 26 26 23 21 21 19 18 17 6 4 6 12 11 8 8 5 4 4 2 5
30 27 28 29 29 28 27 27 25 25 25 27 29 29 27 26 24 24 25 27 25 21 20 18 19 22 19 10 6 6 10 10 9 8 3 2 1 2
35 31 31 30 29 29 29 27 26 25 23 23 18 18 8 1 12 20 23 27 24 23 22 22 22 16 16 12 5 6 8 10 10 9 5 5 3 2
29 33 33 30 29 27 27 26 24 26 27 27 23 17 12 14 12 9 21 27 28 29 27 21 16 16 17 18 14 8 6 9 12 13 12 10 4 4
28 30 26 26 27 25 26 26 26 27 24 19 17 15 21 31 37 42 63 44 32 24 19 17 17 17 18 19 17 13 10 9 9 13 15 15 15 15
Wind_Direction
234 240 252 256 252 279 12 253 160 354 302 325 339 352 345 349 355 333 320 323 328 327 329 332 336 336 333 332 328 325 326 323 323 324 294 276 268 269
240 242 249 255 259 261 276 347 282 222 224 286 306 323 331 331 334 334 332 330 334 347 346 342 336 331 334 338 338 332 339 347 350 343 333 316 288 264
239 247 251 258 258 259 264 273 290 288 253 297 304 316 321 331 331 328 328 330 335 338 339 337 339 348 348 346 348 349 350 354 352 355 352 339 325 280
249 253 257 259 259 263 265 269 279 282 282 293 307 311 314 321 322 320 323 325 330 332 337 342 346 349 351 358 352 352 352 349 353 348 341 332 327 324
251 257 258 261 263 264 272 269 270 276 283 287 296 303 308 315 316 317 319 322 325 338 338 346 346 347 357 359 351 354 353 346 347 346 345 337 329 317
251 255 259 262 267 267 272 271 273 277 280 282 288 296 302 310 312 314 320 327 329 338 339 343 344 352 3 346 343 350 356 350 348 343 340 338 328 311
250 252 256 260 263 265 266 271 271 274 277 281 285 289 294 301 305 309 313 323 324 334 335 338 344 355 1 338 346 360 354 352 350 351 350 346 343 329
254 255 256 257 259 259 261 265 266 270 273 275 279 279 287 295 300 306 310 311 318 326 329 328 338 349 344 331 347 355 354 351 352 352 350 349 345 335
255 260 263 264 262 259 259 260 262 264 265 270 275 279 284 291 298 300 303 304 300 310 316 315 325 336 325 292 310 349 352 352 352 352 353 359 354 349
253 258 263 268 269 266 265 263 263 265 264 265 269 276 281 292 294 296 297 295 298 306 317 269 313 312 295 255 287 336 345 349 352 354 357 5 7 11
252 257 260 267 270 269 265 265 268 268 270 272 274 276 280 284 288 291 286 291 295 301 306 269 287 286 266 247 274 320 340 346 352 358 4 11 18 21
248 253 258 263 265 266 265 265 265 268 272 275 275 277 280 283 284 281 282 278 276 301 308 243 258 266 279 242 252 302 333 346 356 357 8 16 22 23
244 247 251 258 260 260 260 261 261 272 274 277 279 281 281 282 283 281 275 272 268 271 277 275 251 243 240 268 269 296 328 346 359 358 4 20 28 27
239 245 248 251 260 262 261 261 264 267 268 270 272 273 276 284 286 281 275 272 269 269 276 273 262 248 245 260 273 298 324 343 356 359 6 18 38 40
239 243 246 255 261 264 263 265 267 265 264 261 260 265 272 280 283 282 282 273 266 263 262 268 252 256 248 239 267 296 330 337 354 354 4 19 29 32
242 243 247 251 255 261 265 264 260 260 261 260 261 269 272 275 276 278 272 262 253 249 253 251 238 241 230 234 247 277 292 318 339 352 359 20 34 44
238 240 243 247 249 252 255 257 259 257 256 260 261 263 264 266 271 273 258 251 240 244 241 222 226 227 232 239 230 244 266 297 326 344 352 16 34 41
228 229 234 236 240 242 244 246 250 253 253 256 257 254 254 260 270 264 248 245 240 247 237 223 221 208 218 235 242 236 238 273 292 331 342 340 21 35
224 228 230 232 236 238 237 236 238 248 254 246 245 248 254 257 257 254 249 247 245 247 241 217 218 213 186 222 245 224 226 251 263 285 338 6 3 34
227 231 230 228 229 229 230 233 236 239 243 249 252 251 246 244 242 241 237 242 237 232 222 221 220 223 217 222 219 220 228 229 246 266 265 217 83 60
228 227 232 233 231 228 232 234 233 235 240 245 241 231 203 290 277 258 243 241 227 219 219 221 229 237 240 227 205 219 227 223 233 257 268 233 242 262
230 238 237 233 230 228 231 225 221 221 212 206 186 188 246 282 289 302 319 276 226 219 222 231 228 223 215 213 220 219 215 222 232 238 247 239 242 208
238 240 240 236 230 216 216 207 202 192 194 209 223 245 260 265 287 296 285 290 224 209 210 219 211 216 220 224 236 233 227 231 233 248 252 248 244 239
Height
870 871 871 872 872 872 871 870 870 874 871 866 865 865 864 863 863 862 860 858 855 852 849 845 843 839 836 833 830 826 823 820 818 815 815 814 816 818
869 869 870 870 871 871 871 870 870 869 871 867 866 865 864 863 861 859 858 855 853 850 847 843 840 837 833 830 827 823 820 817 814 811 809 807 807 809
867 868 868 869 869 869 869 869 869 869 868 866 865 863 862 860 859 856 855 852 850 848 844 841 837 834 830 827 825 821 817 814 811 808 805 802 800 799
865 866 866 867 867 867 867 867 868 867 867 864 863 861 860 858 857 854 852 850 848 845 842 838 835 832 828 825 821 818 815 813 810 806 803 799 796 794
862 863 863 864 864 865 865 865 865 865 864 863 861 859 857 856 853 852 849 847 845 842 839 836 833 829 826 823 819 816 814 812 809 804 800 796 793 790
858 859 860 860 861 861 862 862 863 863 862 861 859 857 856 854 853 850 846 844 841 840 836 833 829 826 824 820 817 815 813 810 806 802 796 791 787 783
853 854 855 856 857 858 859 859 860 860 860 858 856 854 853 852 850 848 846 842 838 837 833 830 826 824 822 818 816 814 811 807 803 797 792 787 781 776
847 848 850 851 852 853 854 855 856 856 856 855 853 852 850 849 847 846 843 840 837 834 833 827 826 823 820 817 816 814 810 805 799 794 789 783 776 769
841 842 844 845 847 848 848 849 850 851 851 851 849 848 847 845 845 843 841 838 836 833 833 827 822 821 818 815 815 812 809 804 797 791 785 780 773 766
834 836 837 839 840 841 842 843 843 843 844 845 844 842 842 841 841 840 838 836 833 830 831 828 823 819 816 814 812 810 807 802 796 789 782 777 770 765
826 828 830 831 833 835 836 836 837 837 838 838 838 837 837 837 837 836 834 832 830 827 826 825 820 818 816 813 811 809 805 800 794 788 781 775 770 765
817 818 820 823 825 827 829 830 830 828 831 830 830 830 830 830 830 829 829 828 827 825 821 820 817 816 814 811 809 807 804 799 793 787 781 774 769 766
807 809 810 812 816 819 820 821 819 822 823 823 822 822 822 821 821 822 821 822 822 821 818 817 814 813 812 809 806 804 802 798 793 787 782 776 770 767
797 800 802 804 807 809 811 810 813 816 817 816 815 814 814 813 813 814 814 813 813 811 812 812 811 810 809 808 806 803 800 796 793 787 783 779 774 771
788 791 795 796 799 801 801 802 804 806 807 808 806 805 806 806 807 806 807 807 807 806 805 805 805 806 805 804 805 802 801 797 793 789 784 779 775 774
780 783 786 788 790 791 792 793 795 796 797 797 797 796 798 799 799 799 800 801 800 799 800 800 801 801 801 801 801 802 801 798 794 790 787 783 779 777
771 775 777 778 780 781 782 782 785 788 788 788 788 788 789 791 791 794 795 796 796 795 796 797 798 799 798 797 797 798 799 799 796 793 789 785 782 780
764 764 764 767 769 770 772 773 774 776 777 778 778 778 779 783 785 787 790 790 790 790 792 794 795 796 797 795 793 793 794 798 796 793 790 787 785 782
752 754 755 756 757 760 762 764 765 764 766 767 768 771 773 775 777 779 782 783 784 785 787 788 790 792 793 793 789 788 787 790 793 791 788 789 787 784
742 744 745 746 747 749 751 754 757 758 759 762 763 764 766 768 769 771 773 774 778 781 783 784 784 785 786 788 786 786 787 786 790 792 789 786 786 786
730 732 735 737 737 740 743 745 747 749 752 754 755 756 758 761 765 766 767 768 771 776 778 779 781 782 782 785 784 781 782 783 786 790 789 789 788 788
721 724 724 728 729 732 734 736 738 739 739 741 742 746 751 751 750 758 768 771 766 765 768 774 778 778 777 779 778 777 776 778 781 784 786 787 786 783
712 715 716 719 722 725 727 730 732 733 734 735 736 735 737 738 730 727 729 741 751 761 763 770 772 774 772 773 775 774 773 775 776 781 782 782 781 779